Regional Weather Roundup
Issued by NWS Albany, NY

Home | Current Version | Previous Version | Text Only | Print | Product List | Glossary On
Versions: 1 2 3 4 5 6 7 8 9 10 11 12 13 14 15 16 17 18 19 20 21 22 23 24 25 26 27 28 29 30 31 32 33 34 35 36 37 38 39 40 41 42 43 44 45 46 47 48 49 50
925
ASUS41 KALY 240010
RWRALY

NEW YORK STATE HOURLY WEATHER ROUNDUP
NATIONAL WEATHER SERVICE ALBANY NY
800 PM EDT MON OCT 23 2017

NOTE: "FAIR" INDICATES FEW OR NO CLOUDS BELOW 12,000 FEET WITH NO
SIGNIFICANT WEATHER AND/OR NO OBSTRUCTIONS TO VISIBILITY.

NYZ032-033-038>043-046>054-057>066-NYZ062>081-082-084-240100-
EAST


CITY           SKY/WX    TMP DP  RH WIND       PRES   REMARKS
ALBANY         CLOUDY    69  57  65 S6        30.07F
GLENS FALLS    CLOUDY    64  57  78 CALM      30.07F
POUGHKEEPSIE   CLOUDY    68  60  75 VRB7      30.07F
NEWBURGH       CLOUDY    68  63  83 S14       30.10F
MONTGOMERY     CLOUDY    68  61  78 SE8       30.06F
WHITE PLAINS   MOCLDY    67  61  81 SE9       30.10F
ISLIP          CLOUDY    67  64  90 SE13      30.12F
NEW YORK CITY  CLOUDY    70  62  76 SE12      30.07F
$$

NYZ005>009-017-018-044>046-055-056-240100-
CENTRAL


CITY           SKY/WX    TMP DP  RH WIND       PRES   REMARKS
FULTON         CLOUDY    68  57  68 SE9       29.87F
SYRACUSE       CLOUDY    67  58  72 E14       29.89F
ROME           PTCLDY    65  56  72 E8        29.96F
ELMIRA         MOCLDY    69  59  70 S12G25    29.87F
BINGHAMTON     CLOUDY    64  57  78 SE22G28   29.95F
MONTICELLO     CLOUDY    64  59  83 SE15G21   30.07F
$$

NYZ026>034-041>043-087-240100-
NORTH


CITY           SKY/WX    TMP DP  RH WIND       PRES   REMARKS
WATERTOWN      CLOUDY    68  57  68 S9        29.88F
FORT DRUM      NOT AVBL
OGDENSBURG     FAIR      65  55  70 CALM      29.92F
MASSENA        CLOUDY    65  54  67 E6        29.96F
SARANAC LAKE   PTCLDY    62  53  72 S12       30.02F
PLATTSBURGH    CLOUDY    68  56  65 S13       30.02F
$$

NYZ001>004-010>016-019>021-085-240100-
WEST


CITY           SKY/WX    TMP DP  RH WIND       PRES   REMARKS
NIAGARA FALLS  LGT RAIN  67  53  61 SE13      29.70F
BUFFALO        LGT RAIN  68  53  58 S17G28    29.71F
DUNKIRK        CLOUDY    67  55  65 SE21G37   29.67F
JAMESTOWN      PTCLDY    61  54  77 SE16G24   29.71F
WELLSVILLE     CLOUDY    64  53  67 S20G38    29.84F
ROCHESTER      CLOUDY    69  56  62 SE16G23   29.79F
PENN YAN       MOCLDY    67  55  65 S7        29.85F
$$

             KEY
       WCI = WIND CHILL INDEX
       VSB = VISIBILITY
       HX  = HEAT INDEX
$$




USA.gov is the U.S. government's official web portal to all federal, state and local government web resources and services.